This is the latest recevied weather packets stored in our database for station/object HB9TJR-3. If no packets are shown the sender has not sent any weather packets the latest 1 day(s).
| Time | Temp. | Humidity | Pressure | Rain* | Wind** | Luminosity | Snow |
|---|---|---|---|---|---|---|---|
| 1778054374 | 6.67° C | 92% | 857.3 hPa | 0 mm | - | - | - |
| 1778053414 | 6.67° C | 92% | 857.2 hPa | 0 mm | - | - | - |
| 1778052454 | 7.22° C | 91% | 857.1 hPa | 0 mm | - | - | - |
| 1778051494 | 7.22° C | 91% | 857 hPa | 0 mm | - | - | - |
| 1778050534 | 7.78° C | 89% | 857 hPa | 0 mm | - | - | - |
| 1778048614 | 7.78° C | 86% | 857 hPa | 0 mm | - | - | - |
| 1778047654 | 8.33° C | 84% | 856.9 hPa | 0 mm | - | - | - |
| 1778046694 | 7.78° C | 85% | 857.1 hPa | 0 mm | - | - | - |
| 1778045734 | 7.78° C | 86% | 857 hPa | 0 mm | - | - | - |
| 1778041894 | 7.78° C | 84% | 857.1 hPa | 0 mm | - | - | - |
| 1778040934 | 8.33° C | 84% | 857.1 hPa | 0 mm | - | - | - |
| 1778039974 | 7.78° C | 84% | 857.2 hPa | 0 mm | - | - | - |
| 1778039015 | 7.78° C | 84% | 857.2 hPa | 0 mm | - | - | - |
| 1778038054 | 7.22° C | 85% | 857.3 hPa | 0 mm | - | - | - |
| 1778037095 | 8.33° C | 82% | 857.5 hPa | 0 mm | - | - | - |
| 1778036134 | 8.33° C | 82% | 857.6 hPa | 0 mm | - | - | - |
| 1778035174 | 8.33° C | 83% | 857.8 hPa | 0 mm | - | - | - |
| 1778034214 | 7.78° C | 82% | 857.8 hPa | 0 mm | - | - | - |
| 1778033254 | 7.78° C | 83% | 858 hPa | 0 mm | - | - | - |
| 1778032294 | 7.78° C | 84% | 858 hPa | 0 mm | - | - | - |
| 1778031334 | 7.78° C | 85% | 858.3 hPa | 0 mm | - | - | - |
| 1778030374 | 7.78° C | 85% | 858.5 hPa | 0 mm | - | - | - |
| 1778029415 | 7.78° C | 86% | 858.6 hPa | 0 mm | - | - | - |
| 1778028454 | 7.78° C | 87% | 858.8 hPa | 0 mm | - | - | - |
| 1778027495 | 7.78° C | 88% | 859.2 hPa | 0 mm | - | - | - |
* Rain latest hour (hover to see other rain measurements)
** Current wind speed in m/s (hover to see current wind gust speed)